Regional Weather Roundup
Issued by NWS San Diego, CA

Home | Current Version | Previous Version | Text Only | Print | Product List | Glossary On
Versions: 1 2 3 4 5 6 7 8 9 10 11 12 13 14 15 16 17 18 19 20 21 22 23 24 25 26 27 28 29 30 31 32 33 34 35 36 37 38 39 40 41 42 43 44 45 46 47 48 49 50
000
ASUS46 KSGX 222211
RWRSGX

SAN DIEGO HOURLY WEATHER ROUNDUP
NATIONAL WEATHER SERVICE SAN DIEGO CA
300 PM PDT TUE AUG 22 2017

NOTE: "FAIR" INDICATES FEW OR NO CLOUDS BELOW 12,000 FEET WITH NO
SIGNIFICANT WEATHER AND/OR OBSTRUCTIONS TO VISIBILITY.

CAZ042-043-060-061-PZZ750-775-222300-

GREATER SAN DIEGO AREA

CITY           SKY/WX    TMP DP  RH WIND       PRES   REMARKS
SAN DIEGO AP   MOSUNNY   76  63  64 NW14G23   29.99S
NATIONAL CITY    N/A     76  67  72 W3        29.99S
IMPERIAL BEACH MOSUNNY   74  63  68 NW15      29.98F
BROWN FIELD    SUNNY     76  64  66 W10G17    29.97F
MIRAMAR MCAS   MOSUNNY   81  62  52 NW12      29.97F
MONTGOMERY FLD MOSUNNY   78  62  57 NW12      29.97F
GILLESPIE FLD  SUNNY     84  63  48 W12       29.95F

$$

NORTH SAN DIEGO COUNTY

CITY           SKY/WX    TMP DP  RH WIND       PRES   REMARKS
CAMP PENDLETON MOSUNNY   66  64  93 SW9G17    29.95F
OCEANSIDE AP   MOSUNNY   74  64  71 W14       29.96F
OCEANSIDE HBR    N/A     70  65  83 NW15      30.00F
VISTA            N/A     75  65  72 W2        29.94F
CARLSBAD       PTSUNNY   71  64  78 W7        29.97F
DEL MAR          N/A     74  66  76 CALM      29.99F
LA JOLLA SCRIP   N/A     69  66  88 W3        29.97F
FALLBROOK        N/A     82  67  60 SW3       29.96S
ESCONDIDO        N/A     82  66  58 NW9       29.96F
POWAY            N/A     83  66  55 SW6       29.96F

$$

EAST SAN DIEGO COUNTY

CITY           SKY/WX    TMP DP  RH WIND       PRES   REMARKS
RAMONA         SUNNY     89  63  41 NW12      29.98F
SANTEE LAKES     N/A     83  67  58 W3        29.93F
LA MESA          N/A     81  65  58 W10       29.89F
JAMUL            N/A     86  67  52 CALM      29.94F
DESCANSO N       N/A     87  56  35 W6        29.85F
CAMPO            N/A     94  50  22 W13G23    29.99F

$$

ORANGE COUNTY AND THE LOS ANGELES BASIN

CITY           SKY/WX    TMP DP  RH WIND       PRES   REMARKS
JOHN WAYNE AP  MOSUNNY   77  63  61 W10       29.96F
LAKE FOREST FR   N/A     84  62  47 W6        29.84F
HUNTINGTON BCH   N/A     75  67  75 W7        29.97F
LOS ALAMITOS   SUNNY     80  64  58 S12       29.95F
FULLERTON      MOSUNNY   85  64  49 SW8       29.93F
LONG BEACH     SUNNY     81  62  52 W10G18    29.95F
L.A. AP        MOSUNNY   74  64  71 W16       29.97F
L.A. DOWNTOWN  SUNNY     78  63  59 W6        29.96F

$$

THE INLAND EMPIRE

CITY           SKY/WX    TMP DP  RH WIND       PRES   REMARKS
CORONA         SUNNY     89  64  43 W14G22    29.92F
CHINO          MOSUNNY   96  59  29 W15       29.94F HX  95
ONTARIO        MOSUNNY   93  57  29 W14       29.94F
RIVERSIDE AP   SUNNY     94  60  32 W17       29.93F
MORENO VALLEY    N/A     98  58  26 W5        28.09F HX  97
MARCH ARB      SUNNY     95  55  25 W13       29.96F
HORSETHIEF CYN   N/A     93  53  25 NE7       29.93F
PERRIS           N/A     95  54  24 W7        29.95F
HEMET EAST       N/A     95  48  19 W6        29.96F
FRENCH VALLEY  FAIR      91  61  35 S15       29.96F
TEMECULA         N/A     90  62  38 W5        29.97F

$$

SAN BERNARDINO AND RIVERSIDE COUNTY MOUNTAINS

CITY           SKY/WX    TMP DP  RH WIND       PRES   REMARKS
BIG BEAR AP    PTSUNNY   72  34  25 CALM      30.32F
PINE COVE        N/A     78  50  37 CALM      29.94F

$$

SOUTHERN DESERT INCLUDING THE COACHELLA VALLEY

CITY           SKY/WX    TMP DP  RH WIND       PRES   REMARKS
PALM SPRINGS   SUNNY    108  47  13 E13       29.86F HX 104
THOUSAND PALMS   N/A    106  51  15 S7        29.81F HX 103
PALM DESERT      N/A    109  56  17 CALM      31.70S HX 108
THERMAL        MOSUNNY  108  51  15 S9G17     29.80F HX 105
BLYTHE         SUNNY    106  53  17 S7        29.85F HX 104
IMPERIAL AP    MOSUNNY  107  57  19 SE10      29.80F HX 107
EL CENTRO NAS  MOSUNNY  106  49  14 SE7       29.82F HX 103
YUMA AZ        MOSUNNY  107  52  16 S7        29.83F HX 105
MEXICALI       SUNNY    104  48  15 E6        29.84F HX 100

$$

UPPER DESERT

CITY           SKY/WX    TMP DP  RH WIND       PRES   REMARKS
VICTORVILLE AP SUNNY     93  37  14 S13       30.05F
HESPERIA         N/A     95  49  20 W6        30.01F
PALMDALE       SUNNY     96  36  12 NW12G20   30.02F
LANCASTER      SUNNY     96  34  11 SW10      30.01F
EDWARDS AFB    MOSUNNY   96  34  11 SE3       29.99F
DAGGETT        SUNNY     99  42  14 VRB6      29.96F
29 PALMS N     MOSUNNY  101  41  12 S13G21    30.03F HX  96
NEEDLES        SUNNY    106  45  12 VRB3      29.88F HX 101

$$

REGIONAL REPORTS

CITY           SKY/WX    TMP DP  RH WIND       PRES   REMARKS
SANTA BARBARA  SUNNY     76  61  59 W10       29.97F
SANDBERG       SUNNY     89  32  13 S14       30.19F
LAS VEGAS NV   MOSUNNY  100  44  14 NW9       29.99F HX  96
PHOENIX AZ     MOSUNNY  106  47  13 NW9       29.86F HX 102
TIJUANA        SUNNY     77  63  61 W14       29.99F
ENSENADA NW      N/A     72  32  23 W14       29.95F

$$

OFFSHORE ISLANDS

CITY           SKY/WX    TMP DP  RH WIND       PRES   REMARKS
CATALINA ARPT  SUNNY     68  61  78 SW12      30.02F
SAN CLEMENTE I CLOUDY    70  60  70 W13       30.01F
SAN NICOLAS IS MOSUNNY   72  59  63 W16       30.01F

$$

MARINE AND OFFSHORE BUOY REPORTS

STATION/POSITION SKY/WX   TEMP    WIND        PRES    VSBY  SWELL
                          AIR SEA DIR/SP/G                  HT/PER/DIR
                          (F)     (DEG/KT/KT) (MB)    (MI)  (FT/S/D)
TANNER BANKS               65 67  300/ 14/ 16 1016.3F         3/310/ 9
S CLEMENTE BASIN           66 71  300/ 12/ 16 1015.6F         2/210/11
SAN NICOLAS IS.               65                N/A           2/200/12
SO. S. ROSA ISLA           64 65  290/ 16/ 17 1016.1F         3/290/10
W. S. BARBARA CH           64 64  290/ 17/ 19 1015.7
M. S. BARBARA CH           65 67  260/ 16/ 17 1016.2F
S. MONICA BASIN               71  270/ 12/ 14 1015.2F         2/170/12
S PEDRO CHANNEL               69                N/A           2/160/13
CMP PENDLETON NS              69                N/A           2/210/12
OCEANSIDE OFFSHR              72                N/A           2/190/13
TORREY PINES OTR              72                N/A           2/200/13
SAN DIEGO BAY                 75              1015.3F
POINT LOMA SOUTH              69                N/A           2/190/13

$$





USA.gov is the U.S. government's official web portal to all federal, state and local government web resources and services.